GCRRLPMA

Guest
Details From GCRR - Lanzarote
To LPMA - Madeira
Flight Number -
Tags generated
Created
Modified
Stats Distance 300 nm / 555 km
Max Altitude 34,000 ft / 10,363 m
Waypoints 6
Social Downloads 2
Likes 0
Share VATSIM

Download

Looking for another format? Having issues loading an existing format? Contact us
Advertisement - Login to hide

Notes

Basic altitude profile: - Ascent Rate: 1500ft/min - Ascent Speed: 170kts - Cruise Altitude: 15000ft - Cruise Speed: 230kts - Descent Rate: 1500ft/min - Descent Speed: 160kts Options: - Use NATs: yes - Use PACOTS: yes - Use low airways: yes - Use high airways: no

Route

GCRR SARAY 3000N01500W GURKA B18 BIMBO LPMA

ID Type Via Altitude Latitude Longitude Leg Dist Tot Dist Heading (true) Name
O GCRR APT - 0 ft / 0 m 28.94547˚ -13.60522˚ - 0 nm - Lanzarote
SARAY FIX - 20,200 ft / 6,157 m 29.75863˚ -14.15743˚ 56 nm 56 nm 330° / 329° -
3000N01500W LATLON - 34,000 ft / 10,363 m 30.00000˚ -15.00000˚ 46 nm 102 nm 288° / 288° -
GURKA FIX - 30,100 ft / 9,174 m 30.43400˚ -15.85026˚ 51 nm 154 nm 301° / 300° -
BIMBO FIX B18 (AWY-LO) 18,300 ft / 5,578 m 31.42145˚ -16.03287˚ 60 nm 214 nm 351° / 351° -
O LPMA APT - 0 ft / 0 m 32.69770˚ -16.77445˚ 85 nm 299 nm 334° / 334° Madeira

Altitude Profile

Advertisement - Login to hide

Weather


0- 5 10 15 20 25 30 35+ Temperature / ° C

Clouds and Precipitation
Forecast for 2017-12-16 18:00 UTC. Updated 2 hours ago

Ground ~20,000 ft ~40,000 ft Winds

GCRR

Details ICAO GCRR (ACE)
Name Lanzarote
Region Canary Islands
Timezone Atlantic/Canary (UTC+0.0)
Stats Elevation 0 ft / 0 m (AMSL)
Location 28.945466° -13.605223°
Runways 1
Magnetic Variation 3.976° W

METAR

GCRR 161700Z 02010KT 350V050 9999 SCT015 BKN025 20/17 Q1020

Decode

TAF

TAF GCRR 161400Z 1615/1715 34013KT 9999 BKN025 TX21/1714Z TN13/1706Z BECMG 1617/1619 04013KT PROB40 TEMPO 1615/1713 RA

Decode

Departure Runways

ID Width Length Bearing (true) Bearing (mag) Surface Threshold Offset Overrun Length
03 148 ft / 45 m 7,893 ft / 2,406 m 26.90° 30.88° Asphalt 197 ft / 60 m 197 ft / 60 m
21 148 ft / 45 m 7,893 ft / 2,406 m 206.91° 210.89° Asphalt 197 ft / 60 m 197 ft / 60 m

LPMA

Details ICAO LPMA (FNC)
Name Madeira
Region Portugal
Timezone Atlantic/Madeira (UTC+0.0)
Stats Elevation 192 ft / 59 m (AMSL)
Location 32.697704° -16.774449°
Runways 1
Magnetic Variation 4.981° W

METAR

LPMA 161700Z 03011KT 5000 -SHRA BKN013 FEW016CB 17/16 Q1024

Decode

TAF

TAF AMD TAF AMD LPMA 161605Z 1616/1712 03013KT 5000 -RADZ BR BKN013 TEMPO 1616/1618 9999 NSW SCT013 BKN030 PROB30 TEMPO 1616/1618 3000 +DZ SCT008 BKN012 FEW015TCU BECMG 1618/1621 9999 NSW SCT015 SCT030 PROB40 TEMPO 1618/1712 04018G28KT

Decode

Destination Runways

ID Width Length Bearing (true) Bearing (mag) Surface Threshold Offset Overrun Length
05 141 ft / 43 m 8,683 ft / 2,647 m 42.98° 47.96° Asphalt 472 ft / 144 m 0 ft / 0 m
23 141 ft / 43 m 8,683 ft / 2,647 m 222.99° 227.97° Asphalt 466 ft / 142 m 0 ft / 0 m

Popular Alternatives